Location: Bailen
(14.1842°N, 120.7958°E)
Time: 18:41:07
(UTC+00:00)

ARIANE 5 R/B - Pass Details

Date: 12 January 2026
Orbit: 281 x 30948 km, 5.9° (Epoch: 16 February)

Event Time Altitude Azimuth Distance (km) Brightness Sun altitude
Exits shadow 21:41:17 - 228° (SW) 2,119 4.5 -10.6°
Reaches altitude 10° 21:42:50 10° 207° (SSW) 1,603 4.1 -10.3°
Maximum altitude 21:45:29 22° 152° (SSE) 1,627 4.9 -9.7°
Drops below altitude 10° 21:52:19 10° 103° (ESE) 4,451 8.1 -8.1°
Sets 22:02:19 0° 93° (E) 8,666 9.6 -5.8°
